Theta_e
342 339 340 338 338 336 335 339 337 335 338 336 335 334 334 337 337 338 339 342 340 339 338 340 342 343 346 347 349 349 349 347 347 345 344 344 343 343 343 344 344 343 342
343 339 341 337 338 337 336 335 335 336 336 334 335 335 337 337 336 339 337 341 340 338 338 340 341 342 345 347 349 347 348 347 345 345 344 343 343 344 342 343 342 340 339
343 342 338 339 343 347 340 339 337 337 332 333 335 335 334 336 335 337 338 336 336 340 339 340 341 341 344 347 349 348 347 346 345 344 343 343 342 342 342 342 341 339 336
343 342 339 339 345 342 342 339 334 332 331 330 333 332 333 335 336 337 337 337 334 335 339 342 341 341 345 346 349 348 348 346 344 343 342 342 341 342 342 341 339 336 334
341 342 339 341 343 340 337 336 335 333 331 330 332 335 335 335 335 334 334 335 335 335 338 342 343 343 346 347 349 349 347 345 343 343 342 341 341 341 340 339 336 334 334
339 343 339 342 343 337 336 334 335 331 330 335 329 331 334 333 333 334 335 332 334 336 337 339 340 340 345 347 348 349 348 345 343 343 341 340 340 340 339 337 335 334 333
342 342 341 340 340 336 334 335 332 332 332 335 331 330 332 335 335 332 333 332 333 335 341 338 340 340 342 345 347 348 347 345 344 342 340 338 339 338 338 336 335 332 332
341 339 339 340 339 338 336 332 335 332 334 336 327 328 322 327 333 332 333 333 335 334 338 339 339 345 346 345 345 346 347 346 342 341 339 337 337 338 337 336 333 332 331
340 340 338 338 338 339 336 336 334 331 329 333 332 329 322 320 325 333 333 332 339 341 340 343 343 343 348 348 346 343 342 342 342 340 337 336 336 335 333 334 332 331 330
337 337 337 336 336 339 335 334 336 332 333 329 333 331 333 331 322 321 334 337 341 340 342 342 346 346 347 343 344 343 338 339 340 337 335 334 332 331 331 331 332 332 331
337 336 336 336 337 338 337 335 333 333 335 333 332 335 331 332 331 320 320 329 334 337 339 340 344 345 345 343 342 341 336 336 334 334 332 332 332 331 329 333 332 332 331
338 337 334 336 337 338 335 333 335 334 334 336 337 333 335 329 325 327 328 327 326 328 332 333 338 341 338 340 342 335 332 331 329 329 330 331 333 331 334 333 332 331 330
337 337 335 337 337 337 337 337 336 335 336 335 335 335 338 338 334 336 328 324 324 326 330 334 332 335 337 335 336 334 330 326 324 325 327 328 331 333 333 333 332 331 330
337 336 336 337 336 336 336 337 342 339 337 338 335 336 339 338 340 340 337 326 320 323 327 324 329 329 337 333 331 330 326 323 324 323 324 325 327 329 330 330 331 330 331
333 335 336 336 335 335 336 336 337 335 335 336 336 337 337 337 335 340 341 334 331 319 319 320 321 326 330 329 327 325 326 326 325 322 321 322 323 325 325 326 327 328 329
333 334 335 336 335 335 336 337 336 335 334 335 334 331 333 336 330 336 334 334 335 326 318 322 321 324 326 326 328 327 326 325 322 321 321 321 321 322 322 323 325 326 326
333 332 332 334 334 334 335 334 334 333 331 330 329 327 331 333 335 332 330 331 329 327 318 320 322 324 322 323 325 327 327 326 323 320 320 320 319 319 322 323 323 322 320
332 331 330 330 332 332 333 332 330 331 330 328 326 328 328 330 333 333 332 328 325 325 320 316 320 322 322 325 325 324 325 326 323 321 319 318 317 318 318 314 313 313 312
331 332 331 330 331 331 330 331 331 330 331 331 327 325 325 327 328 327 326 325 324 324 322 319 320 322 322 322 322 323 323 325 325 320 316 315 314 313 312 310 308 307 306
331 331 331 332 333 332 331 330 331 330 331 332 332 329 326 329 327 327 326 326 325 322 322 321 320 320 320 322 322 319 319 319 320 322 316 315 313 310 309 308 307 306 303
335 331 333 332 332 333 330 330 332 333 332 333 331 329 331 326 322 325 326 326 325 323 322 320 319 319 319 319 318 320 317 318 321 321 315 315 315 313 311 308 307 305 302
334 333 333 331 332 329 310 313 319 335 334 332 331 329 329 325 319 314 315 318 323 323 321 320 319 318 319 320 320 320 319 318 318 326 322 318 318 316 313 306 302 301 300
336 335 334 333 332 330 310 311 311 334 335 334 332 328 330 330 327 321 312 312 313 313 317 323 320 320 319 321 321 322 321 324 322 325 321 315 317 309 306 301 300 299 299
336 337 335 334 332 326 305 304 306 335 335 333 334 334 333 331 330 327 327 325 324 325 325 325 325 323 322 324 325 325 330 328 325 322 323 312 315 308 306 301 299 298 298
338 335 335 334 332 329 303 303 313 335 333 332 332 334 333 331 306 310 327 324 320 317 312 310 310 308 306 312 319 328 325 320 316 319 325 317 314 309 307 303 300 298 297
337 335 333 334 321 329 303 301 317 333 329 333 332 325 309 320 303 309 327 327 322 321 323 323 322 317 316 320 309 334 329 322 321 319 327 319 315 313 308 308 303 299 298
Wind_Speed
7 6 7 5 7 5 5 3 4 4 3 7 9 9 7 10 11 4 4 14 12 10 9 11 12 11 10 10 12 16 18 21 20 18 18 15 15 13 12 14 17 16 15
6 7 6 6 6 7 7 6 5 6 5 6 5 6 3 10 6 11 4 7 10 11 12 12 13 12 11 11 12 16 18 20 20 18 17 16 15 15 16 16 17 15 15
8 8 8 7 6 5 6 6 8 6 9 9 6 5 6 8 7 10 6 4 11 16 16 16 14 13 12 11 13 18 21 23 21 21 20 18 17 17 19 19 18 16 17
9 8 8 7 6 7 5 4 7 8 7 7 4 7 7 7 6 6 10 9 8 8 16 18 17 15 14 12 13 21 25 24 24 22 19 20 18 18 17 17 18 18 18
10 7 9 7 8 8 6 5 7 5 9 7 3 3 7 7 6 8 12 9 10 7 5 18 17 16 14 14 15 23 27 25 24 23 22 21 19 18 17 17 17 17 19
8 6 9 7 7 7 7 4 8 6 8 5 5 5 6 8 8 7 6 8 11 11 9 9 11 11 15 15 16 24 30 29 26 25 23 21 20 21 20 18 18 18 17
5 7 7 8 8 8 9 9 7 8 7 6 4 5 5 9 7 9 8 10 9 10 7 8 7 8 11 15 16 22 30 32 27 25 22 21 22 21 20 18 17 16 16
8 6 5 7 9 7 9 9 9 7 7 6 5 4 4 5 8 9 7 6 6 5 6 10 9 10 8 9 13 19 32 34 30 24 21 23 22 21 20 18 18 16 16
3 7 9 7 8 7 6 8 7 10 7 7 11 5 4 5 8 7 8 7 7 6 9 8 9 7 7 4 14 17 20 24 25 25 24 23 22 21 19 18 17 16 15
7 4 6 7 6 5 7 7 8 9 8 7 5 9 9 7 5 7 6 6 5 7 8 7 6 8 11 9 13 18 26 33 30 26 26 25 25 22 20 18 17 14 13
5 6 6 4 6 6 6 7 5 7 6 7 7 5 8 8 8 6 9 5 2 1 1 3 5 6 9 10 12 15 23 26 30 28 27 22 23 21 19 16 15 14 13
3 6 6 6 3 4 4 4 5 7 5 6 5 5 5 4 6 3 5 7 6 2 1 3 2 4 5 7 14 24 23 27 27 28 25 20 21 19 17 16 15 13 11
3 6 4 1 2 2 5 6 6 5 5 4 5 5 3 4 3 3 6 6 3 1 2 4 4 4 7 7 12 26 30 28 28 24 19 20 16 15 15 14 14 12 10
4 5 3 3 3 4 4 3 4 4 4 3 4 4 3 3 3 3 6 9 5 2 2 4 3 3 6 10 18 31 21 31 25 16 14 13 13 13 12 11 10 9 7
4 4 3 2 2 4 3 2 1 1 1 3 2 2 1 3 4 2 4 9 7 6 3 3 3 4 6 12 19 18 19 25 20 14 12 16 13 13 11 10 8 7 7
3 6 3 2 3 3 4 3 2 2 1 2 4 5 5 2 5 3 5 4 4 8 7 2 5 6 10 12 19 16 18 19 17 14 14 14 13 12 12 9 9 7 7
4 5 5 5 4 5 5 3 2 3 3 1 2 2 4 3 4 5 6 6 6 9 13 8 5 11 14 18 14 12 13 10 9 16 13 12 12 11 10 9 9 8 8
5 4 3 3 9 5 3 3 3 3 6 5 2 5 4 2 4 4 6 9 7 10 14 18 10 7 13 11 14 15 11 9 9 12 11 10 10 11 10 10 10 10 10
5 5 3 5 6 5 3 3 5 2 5 7 6 6 4 1 5 6 8 9 8 7 13 15 8 10 9 10 12 12 10 10 8 14 13 13 13 13 13 13 13 13 14
6 6 4 8 6 6 6 4 5 6 4 6 9 7 5 5 8 9 10 10 11 12 12 11 10 10 9 9 9 10 10 8 7 8 12 12 13 16 16 15 16 16 15
2 6 5 7 6 6 6 2 2 5 6 8 7 8 6 8 9 10 8 10 14 11 11 11 9 9 10 10 10 7 10 7 7 7 9 8 8 9 9 14 15 17 15
4 8 5 9 4 8 8 8 8 2 10 10 9 10 9 12 13 14 13 10 10 13 12 10 10 10 8 10 9 7 9 9 7 7 9 9 8 8 8 8 13 12 12
7 4 6 8 9 8 5 7 9 1 7 9 11 9 9 11 14 11 15 16 15 14 11 11 13 11 12 11 10 8 9 8 7 7 9 9 7 8 8 8 8 11 12
4 6 7 10 8 7 2 5 8 5 8 10 10 10 11 10 13 13 13 13 12 11 10 9 10 11 11 9 8 10 8 10 9 8 8 7 8 8 7 6 6 9 10
6 6 6 7 8 8 2 4 8 8 7 9 8 10 9 14 9 15 15 14 11 7 10 14 13 13 12 11 11 7 7 10 10 8 8 8 8 8 7 7 6 8 9
5 6 8 6 8 9 4 1 6 9 7 9 9 9 15 12 8 11 13 15 13 11 12 11 9 10 10 9 9 9 8 8 10 8 7 8 9 8 6 7 7 7 7
Wind_Direction
236 256 267 273 290 278 251 255 272 270 257 247 261 258 239 262 268 269 125 152 161 183 197 224 235 239 242 222 206 198 190 181 181 175 167 157 168 170 156 149 133 125 120
233 257 245 228 255 268 257 269 259 268 235 263 238 270 210 240 262 275 175 164 168 190 202 221 228 229 240 224 207 197 181 168 170 162 152 158 163 156 155 141 127 126 122
230 252 268 231 238 268 265 243 261 255 260 248 211 259 204 230 231 238 261 207 195 195 200 211 221 225 231 224 206 192 173 167 171 162 160 156 157 156 154 138 134 132 130
236 254 247 258 263 252 229 230 247 249 250 272 192 236 234 224 206 189 235 242 244 207 201 206 202 212 223 217 204 190 173 167 166 156 158 156 156 149 144 138 135 138 125
233 227 261 253 256 250 238 242 250 238 248 253 267 207 242 256 185 203 218 213 244 262 198 189 196 200 212 211 198 190 173 165 158 162 160 156 157 143 136 135 141 138 127
241 230 252 249 246 229 241 254 251 237 238 233 246 242 232 238 207 224 236 221 216 217 235 167 187 201 207 209 199 189 178 163 163 162 159 155 148 141 137 142 141 138 139
256 235 247 243 239 234 232 228 248 246 252 278 248 237 235 248 240 220 239 210 220 196 212 224 225 199 188 195 197 186 185 165 164 159 156 153 141 138 135 137 142 140 129
260 263 256 248 240 237 239 233 229 232 248 236 219 222 211 218 236 239 225 207 206 228 205 232 227 246 162 188 197 190 182 162 163 157 147 135 137 136 138 140 142 142 139
246 243 244 240 251 243 245 237 231 230 236 223 212 216 195 212 171 205 232 238 181 205 229 213 232 242 193 157 146 140 148 141 150 147 132 133 132 135 137 141 146 149 138
260 226 249 247 240 227 229 232 224 228 228 230 211 227 248 261 192 174 185 217 203 207 209 237 216 215 187 139 150 160 154 145 145 140 134 141 138 142 150 147 152 141 140
274 257 231 234 214 216 225 235 237 220 226 221 217 213 227 248 242 214 161 169 174 221 106 275 207 192 174 164 162 158 150 142 139 133 138 151 142 152 151 154 141 144 151
248 250 240 213 182 214 222 219 211 210 206 220 216 227 229 242 250 131 138 147 137 78 122 65 88 128 111 145 148 147 139 140 132 132 132 149 146 155 154 151 149 146 148
227 223 204 237 251 233 219 206 201 212 201 221 225 235 218 224 264 240 162 133 124 110 121 75 72 60 110 107 150 140 125 123 126 130 142 147 160 156 147 149 148 150 157
193 177 139 190 203 211 225 197 221 199 223 218 236 224 248 249 257 226 181 140 124 102 97 94 58 72 130 127 125 120 124 124 130 130 147 146 140 128 140 134 136 139 133
164 145 130 151 186 157 187 216 229 117 292 268 301 274 220 281 332 192 153 155 161 141 105 56 91 70 138 127 126 123 129 130 123 127 141 130 127 123 120 117 108 116 113
116 123 146 151 148 107 93 58 100 141 181 22 13 8 346 18 58 79 111 123 137 126 105 92 87 95 111 112 115 116 111 114 125 134 121 117 121 124 125 127 116 116 112
178 192 162 156 121 93 76 100 76 95 89 88 311 354 43 45 100 101 85 75 89 114 116 109 102 100 94 101 102 108 108 113 113 102 102 111 114 111 115 118 122 98 96
190 179 181 146 80 71 58 86 113 177 162 159 75 100 83 73 111 96 100 97 92 130 133 117 116 109 113 104 105 109 104 103 104 101 93 98 107 106 102 95 97 93 91
174 180 159 105 85 81 86 113 111 135 147 151 124 124 118 84 98 110 111 110 110 110 120 125 119 113 103 103 99 100 108 100 101 103 98 87 87 94 96 98 98 99 95
174 160 159 101 118 111 89 99 140 140 161 136 138 131 146 136 115 109 119 123 126 118 121 121 113 112 117 115 113 125 108 108 135 106 71 87 98 92 92 93 96 95 89
290 130 99 127 112 129 85 25 127 124 122 122 110 110 114 86 111 109 119 123 120 120 121 128 120 119 118 119 122 116 114 120 126 116 118 130 123 109 98 85 93 93 88
158 132 144 129 137 79 53 21 7 75 102 117 118 101 109 103 84 90 89 95 111 133 124 121 129 128 116 115 126 129 128 151 139 158 137 124 134 122 86 85 93 100 99
162 153 119 113 107 105 41 353 352 7 104 110 115 134 125 113 116 102 89 90 92 88 95 130 130 132 121 137 141 142 152 154 125 141 121 120 117 106 107 109 104 101 97
132 128 141 138 134 104 106 329 325 123 109 113 128 128 116 123 120 119 112 101 99 110 112 117 115 123 132 149 167 157 167 126 117 140 138 130 137 125 116 116 114 112 120
148 145 156 122 140 123 146 307 305 125 112 122 125 115 130 113 100 126 123 113 100 94 95 102 107 116 132 165 176 151 144 141 150 158 193 132 144 141 157 147 145 158 142
118 107 129 143 113 120 131 300 309 101 108 110 102 91 74 103 108 108 126 128 126 127 127 123 126 132 166 187 218 185 167 158 163 159 191 172 155 159 169 166 157 171 174